"Pseudo-MPEC" for ST21I34

Created 2021 Sep 19 21:07:22 UT using Find_Orb

Click here for an explanation of pseudo-MPECs

 
 Astrometry: 
     ST21I34  C2021 09 14\dSSXVbP4Ab2.2IAstrometry]ns\e`pXQg026YYjfIredacted;U68
     ST21I34  C2021 09 14#v2S0-ov;'ESPclickr5;X_scL^v==Vv3Gb]$^IWH0E-jY]cnSuSU68
     ST21I34  C2021 09 14_Zd5w\ksol5,pMUMufS@F;e%R(M_#f:PQ72Cdhere\iSh`xguvd6U68
     ST21I34  C2021 09 14aCBip(GPnckxo\el!G[TiA5A/for7_*gexplanation#tOFprx?GU68

Station data:
(U68) JPL SynTrack Robotic Telescope, Auberry  (N37.070390 W119.412990)
   US/California.

Orbital elements:  ST21I34
   Perigee 2021 Sep 12.355625 +/- 28.5345 TT =  8:32:06 (JD 2459469.855625)
Epoch 2021 Sep 14.0 TT = JDT 2459471.5                        AutoNEOCP
q561087.411 +/- 2.71958e+7          (J2000 equator)
H   29.5  G 0.15                    Peri.  296.61119 +/- 44.558790
                                    Node   326.76674 +/- 0.3416802
e  32.7583328 +/- 0.241534          Incl.   73.66723 +/- 8.0335016
From 4 observations 2021 Sept. 14 (37.7 min); mean residual 0".26
Residuals in arcseconds: 
210914 U68  .02-  .07-    210914 U68  .54-  .13-    
210914 U68  .10+  .10+    210914 U68  .45+  .10+    

Ephemerides (geocentric):
Date (UTC) HH   RA              Dec         delta   r     elong  mag " sig PA
---- -- -- --  -------------   -----------  ------ ------ -----  --- ---- ---
2021 09 19 21  22 08 33.772   +17 03 41.21  .02120 1.0227 149.3 22.4  29d 154
2021 09 19 22  22 08 38.446   +17 06 51.33  .02132 1.0227 149.3 22.5  29d 154
2021 09 19 23  22 08 43.079   +17 09 59.36  .02143 1.0228 149.3 22.5  29d 154
2021 09 20 00  22 08 47.673   +17 13 05.33  .02155 1.0229 149.2 22.5  30d 154
2021 09 20 01  22 08 52.228   +17 16 09.27  .02166 1.0230 149.2 22.5  30d 154
2021 09 20 02  22 08 56.746   +17 19 11.22  .02177 1.0231 149.2 22.5  30d 154
2021 09 20 03  22 09 01.225   +17 22 11.20  .02189 1.0231 149.1 22.5  30d 154
2021 09 20 04  22 09 05.668   +17 25 09.24  .02200 1.0232 149.1 22.5  30d 154
2021 09 20 05  22 09 10.075   +17 28 05.38  .02212 1.0233 149.1 22.5  30d 154
2021 09 20 06  22 09 14.445   +17 30 59.63  .02223 1.0234 149.0 22.6  30d 154
2021 09 20 07  22 09 18.781   +17 33 52.04  .02234 1.0235 149.0 22.6  30d 154
2021 09 20 08  22 09 23.081   +17 36 42.62  .02246 1.0235 149.0 22.6  30d 154
2021 09 20 09  22 09 27.347   +17 39 31.41  .02257 1.0236 148.9 22.6  30d 154
2021 09 20 10  22 09 31.580   +17 42 18.42  .02269 1.0237 148.9 22.6  30d 154
2021 09 20 11  22 09 35.780   +17 45 03.69  .02280 1.0238 148.9 22.6  31d 154
2021 09 20 12  22 09 39.946   +17 47 47.24  .02292 1.0239 148.8 22.6  31d 155
2021 09 20 13  22 09 44.081   +17 50 29.09  .02303 1.0239 148.8 22.6  31d 155
2021 09 20 14  22 09 48.183   +17 53 09.28  .02314 1.0240 148.8 22.7  31d 155
2021 09 20 15  22 09 52.255   +17 55 47.81  .02326 1.0241 148.7 22.7  31d 155
2021 09 20 16  22 09 56.296   +17 58 24.73  .02337 1.0242 148.7 22.7  31d 155
2021 09 20 17  22 10 00.306   +18 01 00.04  .02349 1.0243 148.7 22.7  31d 155
2021 09 20 18  22 10 04.286   +18 03 33.77  .02360 1.0243 148.6 22.7  31d 155
2021 09 20 19  22 10 08.237   +18 06 05.95  .02372 1.0244 148.6 22.7  31d 155
2021 09 20 20  22 10 12.159   +18 08 36.60  .02383 1.0245 148.6 22.7  31d 155
2021 09 20 21  22 10 16.052   +18 11 05.73  .02395 1.0246 148.6 22.7  31d 155
2021 09 20 22  22 10 19.917   +18 13 33.37  .02406 1.0247 148.5 22.7  31d 155
2021 09 20 23  22 10 23.754   +18 15 59.53  .02418 1.0248 148.5 22.8  31d 155
2021 09 21 00  22 10 27.564   +18 18 24.25  .02429 1.0248 148.5 22.8  31d 155
2021 09 21 01  22 10 31.346   +18 20 47.53  .02440 1.0249 148.4 22.8  32d 155
2021 09 21 02  22 10 35.102   +18 23 09.40  .02452 1.0250 148.4 22.8  32d 155
2021 09 21 03  22 10 38.832   +18 25 29.88  .02463 1.0251 148.4 22.8  32d 155
2021 09 21 04  22 10 42.536   +18 27 48.98  .02475 1.0252 148.4 22.8  32d 155
2021 09 21 05  22 10 46.214   +18 30 06.72  .02486 1.0252 148.3 22.8  32d 155
2021 09 21 06  22 10 49.867   +18 32 23.13  .02498 1.0253 148.3 22.8  32d 155
2021 09 21 07  22 10 53.495   +18 34 38.22  .02509 1.0254 148.3 22.8  32d 155
2021 09 21 08  22 10 57.099   +18 36 52.00  .02521 1.0255 148.2 22.9  32d 155
2021 09 21 09  22 11 00.678   +18 39 04.49  .02532 1.0256 148.2 22.9  32d 155
2021 09 21 10  22 11 04.234   +18 41 15.72  .02544 1.0256 148.2 22.9  32d 155
2021 09 21 11  22 11 07.766   +18 43 25.69  .02555 1.0257 148.2 22.9  32d 155
2021 09 21 12  22 11 11.276   +18 45 34.42  .02567 1.0258 148.1 22.9  32d 155
2021 09 21 13  22 11 14.762   +18 47 41.94  .02578 1.0259 148.1 22.9  32d 155
2021 09 21 14  22 11 18.226   +18 49 48.24  .02590 1.0260 148.1 22.9  32d 155
2021 09 21 15  22 11 21.667   +18 51 53.36  .02601 1.0260 148.0 22.9  33d 155
2021 09 21 16  22 11 25.087   +18 53 57.30  .02613 1.0261 148.0 22.9  33d 155
2021 09 21 17  22 11 28.485   +18 56 00.08  .02624 1.0262 148.0 23.0  33d 155
2021 09 21 18  22 11 31.862   +18 58 01.72  .02636 1.0263 148.0 23.0  33d 155
2021 09 21 19  22 11 35.218   +19 00 02.22  .02647 1.0264 147.9 23.0  33d 155
2021 09 21 20  22 11 38.553   +19 02 01.60  .02659 1.0264 147.9 23.0  33d 155